This is the latest recevied weather packets stored in our database for station/object W7WSW. If no packets are shown the sender has not sent any weather packets the latest 1 day(s).
| Time | Temp. | Humidity | Pressure | Rain* | Wind** | Luminosity | Snow |
|---|---|---|---|---|---|---|---|
| 1777997791 | 13.33° C | 82% | 1014.9 hPa | 0 mm | 1.34 m/s, 243° | 148 W/m² | - |
| 1777997731 | 13.33° C | 82% | 1014.8 hPa | 0 mm | 1.34 m/s, 271° | 151 W/m² | - |
| 1777997669 | 13.33° C | 82% | 1014.8 hPa | 0 mm | 1.34 m/s, 268° | 155 W/m² | - |
| 1777997607 | 13.33° C | 82% | 1014.8 hPa | 0 mm | 1.34 m/s, 275° | 155 W/m² | - |
| 1777997547 | 13.33° C | 82% | 1014.9 hPa | 0 mm | 1.34 m/s, 240° | 149 W/m² | - |
| 1777997487 | 13.33° C | 82% | 1014.8 hPa | 0 mm | 1.34 m/s, 252° | 146 W/m² | - |
| 1777997425 | 13.33° C | 82% | 1014.8 hPa | 0 mm | 1.34 m/s, 242° | 146 W/m² | - |
| 1777997362 | 13.33° C | 82% | 1014.8 hPa | 0 mm | 1.34 m/s, 250° | 149 W/m² | - |
| 1777997299 | 13.33° C | 82% | 1014.8 hPa | 0 mm | 1.34 m/s, 262° | 155 W/m² | - |
| 1777997237 | 12.78° C | 82% | 1014.8 hPa | 0 mm | 1.34 m/s, 262° | 155 W/m² | - |
| 1777997177 | 13.33° C | 82% | 1014.8 hPa | 0 mm | 1.34 m/s, 243° | 148 W/m² | - |
| 1777997117 | 12.78° C | 82% | 1014.8 hPa | 0 mm | 1.34 m/s, 244° | 144 W/m² | - |
| 1777997058 | 12.78° C | 82% | 1014.8 hPa | 0 mm | 0.89 m/s, 243° | 142 W/m² | - |
| 1777996992 | 12.78° C | 82% | 1014.7 hPa | 0 mm | 0.89 m/s, 264° | 142 W/m² | - |
| 1777996931 | 13.33° C | 82% | 1014.7 hPa | 0 mm | 0.89 m/s, 237° | 137 W/m² | - |
| 1777996872 | 13.33° C | 82% | 1014.7 hPa | 0 mm | 0.89 m/s, 244° | 128 W/m² | - |
| 1777996811 | 13.33° C | 82% | 1014.7 hPa | 0 mm | 0.89 m/s, 233° | 121 W/m² | - |
| 1777996751 | 12.78° C | 82% | 1014.7 hPa | 0 mm | 0.89 m/s, 259° | 118 W/m² | - |
| 1777996687 | 13.33° C | 82% | 1014.7 hPa | 0 mm | 0.89 m/s, 244° | 116 W/m² | - |
| 1777996625 | 13.33° C | 82% | 1014.6 hPa | 0 mm | 0.89 m/s, 246° | 116 W/m² | - |
| 1777996565 | 12.78° C | 82% | 1014.7 hPa | 0 mm | 0.89 m/s, 246° | 113 W/m² | - |
| 1777996505 | 13.33° C | 82% | 1014.6 hPa | 0 mm | 0.89 m/s, 234° | 111 W/m² | - |
| 1777996445 | 13.33° C | 82% | 1014.6 hPa | 0 mm | 1.34 m/s, 234° | 109 W/m² | - |
| 1777996407 | 12.78° C | 83% | 1014.6 hPa | 0 mm | 1.34 m/s, 240° | 107 W/m² | - |
| 1777996319 | 13.33° C | 83% | 1014.6 hPa | 0 mm | 1.34 m/s, 245° | 105 W/m² | - |
* Rain latest hour (hover to see other rain measurements)
** Current wind speed in m/s (hover to see current wind gust speed)